OpenBCM V1.07b12 (Linux)

Packet Radio Mailbox

DB0FHN

[JN59NK Nuernberg]

 Login: GUEST





  
CX2SA  > KEPS     17.08.04 06:31l 151 Lines 3941 Bytes #999 (0) @ AMSAT
BID : ORB04229.O
Read: GUEST
Subj: Orbital Elements  04229.OSCAR
Path: DB0FHN<DB0RGB<OK0PPL<DB0RES<ON0AR<IW2ESA<IK1ZNW<I0TVL<CX2SA
Sent: 040817/0518Z @:CX2SA.LAV.URY.SA #:1396 [Minas] FBB7.00e $:ORB04229.O
From: CX2SA@CX2SA.LAV.URY.SA
To  : KEPS@AMSAT


HR AMSAT ORBITAL ELEMENTS FOR OSCAR SATELLITES
FROM WA5QGD FORT WORTH,TX August 16, 2004
SEND SUBSCRIBE/UNSUBSCRIBE TO majordomo@amsat.org ONLY
BID: ORB04229.O
TO ALL RADIO AMATEURS BT

Satellite: AO-07
Catalog number: 07530
Epoch time:      04228.97218644
Element set:    0314
Inclination:      101.6794 deg
RA of node:       274.7646 deg
Eccentricity:    0.0012223
Arg of perigee:   105.3357 deg
Mean anomaly:     254.9068 deg
Mean motion:   12.53568907 rev/day
Decay rate:       -2.9e-07 rev/day^2
Epoch rev:           36140
Checksum:              302

Satellite: AO-10
Catalog number: 14129
Epoch time:      04227.89744366
Element set:    0090
Inclination:      026.5518 deg
RA of node:       076.7153 deg
Eccentricity:    0.6023055
Arg of perigee:   115.7093 deg
Mean anomaly:     316.8071 deg
Mean motion:   02.05866677 rev/day
Decay rate:       -4.7e-07 rev/day^2
Epoch rev:           15922
Checksum:              307

Satellite: UO-11
Catalog number: 14781
Epoch time:      04229.79095270
Element set:     554
Inclination:       98.1764 deg
RA of node:       215.6507 deg
Eccentricity:    0.0008041
Arg of perigee:   256.0960 deg
Mean anomaly:     103.9355 deg
Mean motion:   14.78969822 rev/day
Decay rate:       1.52e-06 rev/day^2
Epoch rev:            9680
Checksum:              318

Satellite: RS-10/11
Catalog number: 18129
Epoch time:      04228.69859834
Element set:    0493
Inclination:      082.9238 deg
RA of node:       104.1149 deg
Eccentricity:    0.0012024
Arg of perigee:   148.3475 deg
Mean anomaly:     211.8405 deg
Mean motion:   13.72742467 rev/day
Decay rate:        2.1e-07 rev/day^2
Epoch rev:           85916
Checksum:              308

Satellite: FO-20
Catalog number: 20480
Epoch time:      04228.70629471
Element set:     696
Inclination:       99.0425 deg
RA of node:        94.9080 deg
Eccentricity:    0.0539939
Arg of perigee:   211.9703 deg
Mean anomaly:     144.7553 deg
Mean motion:   12.83340842 rev/day
Decay rate:       -5.9e-07 rev/day^2
Epoch rev:           68031
Checksum:              317

Satellite: RS-12/13
Catalog number: 21089
Epoch time:      04229.87543307
Element set:     718
Inclination:       82.9242 deg
RA of node:       136.7405 deg
Eccentricity:    0.0027970
Arg of perigee:   205.1429 deg
Mean anomaly:     154.8366 deg
Mean motion:   13.74439827 rev/day
Decay rate:        3.0e-07 rev/day^2
Epoch rev:           67869
Checksum:              329

Satellite: RS-15
Catalog number: 23439
Epoch time:      04228.50685870
Element set:    0804
Inclination:      064.8147 deg
RA of node:       241.8996 deg
Eccentricity:    0.0154207
Arg of perigee:   010.6571 deg
Mean anomaly:     349.7561 deg
Mean motion:   11.27549624 rev/day
Decay rate:       -2.7e-07 rev/day^2
Epoch rev:           39692
Checksum:              328

Satellite: FO-29
Catalog number: 24278
Epoch time:      04229.29502159
Element set:     785
Inclination:       98.5868 deg
RA of node:       313.3888 deg
Eccentricity:    0.0349807
Arg of perigee:   245.9554 deg
Mean anomaly:     110.4614 deg
Mean motion:   13.52901420 rev/day
Decay rate:       -1.7e-07 rev/day^2
Epoch rev:           39496
Checksum:              342

Satellite: SO-33
Catalog number: 25509
Epoch time:      04229.57844359
Element set:     175
Inclination:       31.4315 deg
RA of node:       314.1819 deg
Eccentricity:    0.0355455
Arg of perigee:    23.8804 deg
Mean anomaly:     337.8014 deg
Mean motion:   14.27860550 rev/day
Decay rate:       2.93e-06 rev/day^2
Epoch rev:           30325
Checksum:              299

Satellite: AO-40
Catalog number: 26609
Epoch time:      04228.37185880
Element set:     424
Inclination:        9.9539 deg
RA of node:       347.1779 deg
Eccentricity:    0.7973706
Arg of perigee:   311.0949 deg
Mean anomaly:       3.9980 deg
Mean motion:    1.25585652 rev/day
Decay rate:      -2.45e-06 rev/day^2
Epoch rev:            1741
Checksum:              335



Read previous mail | Read next mail


 09.11.2025 08:48:15lGo back Go up